QPF
0.06 0.11 0.15 0.17 0.15 0.11 0.09 0.06 0.04 0.04 0.04 0.05 0.05 0.05 0.04 0.04 0.03 0.03 0.04 0.04 0.05 0.03 0.02 0.01 0.02 0.03 0.06 0.07 0.04 0.05 0.06 0.05 0.05 0.04 0.02 0.03 0.04 0.04 0.04 0.06 0.11 0.12 0.08
0.06 0.08 0.16 0.15 0.12 0.08 0.06 0.07 0.06 0.04 0.03 0.03 0.05 0.04 0.03 0.03 0.02 0.03 0.03 0.05 0.05 0.04 0.03 0.03 0.03 0.03 0.06 0.08 0.04 0.04 0.07 0.05 0.04 0.03 0.03 0.04 0.04 0.05 0.05 0.07 0.10 0.11 0.10
0.05 0.07 0.12 0.13 0.09 0.07 0.06 0.06 0.06 0.05 0.04 0.03 0.03 0.03 0.03 0.03 0.03 0.03 0.03 0.04 0.04 0.05 0.03 0.03 0.03 0.03 0.07 0.13 0.06 0.05 0.05 0.03 0.03 0.03 0.04 0.05 0.06 0.07 0.07 0.07 0.07 0.07 0.07
0.05 0.08 0.09 0.11 0.09 0.07 0.06 0.04 0.04 0.04 0.03 0.02 0.03 0.03 0.04 0.03 0.03 0.03 0.03 0.04 0.04 0.04 0.03 0.03 0.02 0.03 0.06 0.13 0.07 0.05 0.03 0.02 0.03 0.03 0.03 0.03 0.04 0.06 0.08 0.06 0.05 0.03 0.03
0.06 0.08 0.09 0.10 0.08 0.07 0.04 0.04 0.01 0.02 0.02 0.02 0.03 0.03 0.03 0.03 0.03 0.03 0.03 0.03 0.03 0.03 0.02 0.02 0.02 0.03 0.03 0.09 0.07 0.05 0.04 0.02 0.02 0.02 0.02 0.03 0.04 0.07 0.08 0.06 0.06 0.05 0.03
0.04 0.07 0.08 0.08 0.06 0.05 0.02 0.02 0.01 0.01 0.02 0.02 0.02 0.02 0.03 0.03 0.02 0.02 0.02 0.01 0.02 0.03 0.02 0.02 0.02 0.02 0.03 0.08 0.06 0.06 0.05 0.03 0.01 0.02 0.01 0.03 0.05 0.06 0.06 0.06 0.06 0.05 0.05
0.02 0.04 0.07 0.08 0.06 0.05 0.03 0.03 0.02 0.02 0.02 0.03 0.02 0.02 0.03 0.03 0.01 0.01 0.01 0.01 0.02 0.02 0.02 0.02 0.02 0.03 0.04 0.07 0.08 0.08 0.04 0.02 0.01 0.01 0.02 0.03 0.05 0.05 0.04 0.04 0.04 0.04 0.05
0.02 0.03 0.04 0.06 0.05 0.04 0.04 0.02 0.02 0.03 0.03 0.03 0.03 0.02 0.02 0.02 0.01 0.01 0.01 0.01 0.02 0.02 0.02 0.02 0.02 0.04 0.06 0.07 0.09 0.08 0.04 0.02 0.01 0.01 0.02 0.04 0.05 0.06 0.05 0.04 0.03 0.04 0.05
0.02 0.02 0.03 0.04 0.03 0.05 0.03 0.01 0.01 0.01 0.01 0.02 0.01 0.01 0.01 0.01 0.01 0.01 0.01 0.02 0.03 0.03 0.03 0.03 0.02 0.05 0.08 0.10 0.09 0.07 0.04 0.02 0.01 0.01 0.02 0.04 0.06 0.07 0.06 0.04 0.04 0.05 0.04
0.01 0.01 0.02 0.03 0.05 0.04 0.02 0.01 0.01 0.01 0.01 0.01 0.01 0.01 0.01 0.01 0.01 0.01 0.01 0.02 0.04 0.04 0.04 0.04 0.06 0.09 0.14 0.10 0.08 0.05 0.03 0.02 0.02 0.02 0.04 0.05 0.08 0.07 0.05 0.04 0.05 0.04 0.02
0.01 0.01 0.01 0.02 0.02 0.02 0.01 0.01 0.01 0.01 0.01 0.01 0.01 0.01 0.01 0.01 0.01 0.01 0.01 0.02 0.04 0.05 0.05 0.10 0.12 0.17 0.19 0.12 0.07 0.05 0.04 0.03 0.02 0.03 0.05 0.07 0.07 0.06 0.05 0.04 0.05 0.04 0.02
0.00 0.00 0.01 0.01 0.01 0.01 0.01 0.01 0.01 0.01 0.01 0.01 0.00 0.00 0.00 0.00 0.00 0.00 0.01 0.01 0.02 0.03 0.05 0.12 0.17 0.17 0.13 0.08 0.04 0.03 0.04 0.02 0.02 0.04 0.06 0.08 0.07 0.06 0.06 0.03 0.04 0.03 0.02
0.00 0.00 0.00 0.00 0.00 0.00 0.01 0.01 0.01 0.01 0.00 0.00 0.00 0.00 0.00 0.00 0.00 0.00 0.01 0.01 0.01 0.01 0.02 0.03 0.04 0.04 0.04 0.03 0.02 0.02 0.02 0.01 0.03 0.04 0.07 0.07 0.06 0.07 0.06 0.04 0.03 0.03 0.03
0.00 0.00 0.00 0.00 0.00 0.01 0.01 0.01 0.01 0.00 0.00 0.01 0.01 0.01 0.00 0.00 0.01 0.01 0.01 0.01 0.01 0.01 0.01 0.01 0.01 0.01 0.01 0.01 0.02 0.01 0.01 0.01 0.02 0.03 0.04 0.06 0.06 0.07 0.07 0.05 0.03 0.04 0.03
0.00 0.00 0.00 0.00 0.00 0.00 0.01 0.01 0.01 0.01 0.01 0.01 0.00 0.01 0.00 0.00 0.01 0.01 0.01 0.01 0.01 0.01 0.01 0.01 0.01 0.01 0.01 0.01 0.01 0.01 0.01 0.01 0.02 0.02 0.03 0.04 0.07 0.09 0.09 0.07 0.05 0.04 0.03
0.00 0.00 0.00 0.00 0.00 0.00 0.00 0.00 0.01 0.01 0.00 0.00 0.01 0.01 0.00 0.01 0.01 0.01 0.01 0.01 0.01 0.01 0.01 0.01 0.01 0.01 0.01 0.01 0.02 0.02 0.02 0.01 0.02 0.02 0.02 0.02 0.04 0.07 0.09 0.09 0.07 0.05 0.03
0.00 0.00 0.00 0.00 0.00 0.00 0.00 0.00 0.00 0.00 0.00 0.01 0.02 0.03 0.02 0.02 0.02 0.01 0.02 0.01 0.01 0.01 0.01 0.00 0.00 0.00 0.01 0.01 0.02 0.02 0.02 0.02 0.02 0.02 0.01 0.02 0.02 0.03 0.04 0.04 0.05 0.04 0.03
0.01 0.00 0.00 0.00 0.00 0.00 0.00 0.00 0.00 0.00 0.00 0.01 0.01 0.02 0.03 0.02 0.02 0.02 0.02 0.01 0.01 0.01 0.01 0.01 0.00 0.00 0.00 0.01 0.00 0.01 0.02 0.02 0.01 0.01 0.01 0.01 0.01 0.02 0.02 0.02 0.02 0.05 0.06
0.01 0.01 0.00 0.00 0.00 0.01 0.00 0.00 0.00 0.00 0.00 0.02 0.02 0.02 0.03 0.02 0.02 0.02 0.01 0.01 0.01 0.01 0.01 0.00 0.00 0.00 0.00 0.00 0.00 0.00 0.01 0.01 0.00 0.01 0.01 0.00 0.01 0.01 0.02 0.01 0.01 0.02 0.04
0.01 0.02 0.01 0.01 0.01 0.01 0.01 0.00 0.00 0.00 0.00 0.00 0.01 0.01 0.01 0.01 0.01 0.01 0.01 0.00 0.00 0.01 0.01 0.00 0.00 0.00 0.00 0.00 0.00 0.00 0.01 0.01 0.01 0.02 0.01 0.01 0.01 0.01 0.01 0.01 0.01 0.01 0.01
0.02 0.02 0.03 0.02 0.02 0.02 0.01 0.01 0.01 0.00 0.00 0.00 0.00 0.01 0.01 0.01 0.01 0.01 0.00 0.00 0.00 0.01 0.01 0.00 0.00 0.00 0.00 0.00 0.00 0.00 0.01 0.01 0.01 0.01 0.01 0.02 0.01 0.01 0.01 0.01 0.01 0.00 0.00
0.02 0.01 0.02 0.02 0.01 0.02 0.01 0.01 0.00 0.00 0.00 0.00 0.00 0.00 0.00 0.00 0.00 0.00 0.00 0.00 0.00 0.00 0.01 0.00 0.00 0.00 0.00 0.00 0.00 0.00 0.01 0.01 0.00 0.00 0.01 0.01 0.01 0.01 0.01 0.01 0.00 0.00 0.00
0.01 0.01 0.01 0.02 0.01 0.00 0.00 0.01 0.00 0.00 0.00 0.00 0.00 0.00 0.00 0.00 0.00 0.00 0.00 0.00 0.00 0.00 0.00 0.00 0.00 0.00 0.00 0.00 0.00 0.00 0.01 0.01 0.01 0.01 0.00 0.00 0.00 0.00 0.00 0.00 0.00 0.00 0.00
0.01 0.01 0.01 0.02 0.01 0.00 0.00 0.01 0.01 0.00 0.00 0.00 0.00 0.00 0.00 0.00 0.00 0.00 0.00 0.00 0.00 0.00 0.00 0.00 0.00 0.01 0.00 0.00 0.00 0.00 0.00 0.00 0.01 0.01 0.00 0.00 0.00 0.00 0.00 0.00 0.00 0.00 0.00
0.00 0.00 0.00 0.00 0.00 0.00 0.01 0.01 0.01 0.01 0.00 0.00 0.00 0.00 0.00 0.00 0.00 0.00 0.00 0.00 0.00 0.00 0.00 0.00 0.00 0.00 0.00 0.00 0.00 0.00 0.00 0.00 0.00 0.01 0.00 0.00 0.00 0.00 0.00 0.00 0.00 0.00 0.00
0.00 0.00 0.00 0.00 0.00 0.00 0.00 0.00 0.00 0.00 0.01 0.00 0.00 0.00 0.00 0.00 0.00 0.00 0.00 0.00 0.00 0.00 0.00 0.00 0.00 0.00 0.00 0.00 0.00 0.00 0.00 0.01 0.00 0.01 0.01 0.00 0.01 0.00 0.00 0.00 0.00 0.00 0.00
MSLP
1016.64 1016.36 1016.17 1016.12 1016.21 1016.39 1016.60 1016.77 1016.86 1016.83 1016.70 1016.52 1016.32 1016.17 1016.09 1016.07 1016.10 1016.13 1016.13 1016.08 1015.96 1015.79 1015.59 1015.40 1015.23 1015.10 1015.00 1014.92 1014.84 1014.76 1014.65 1014.51 1014.35 1014.17 1013.96 1013.72 1013.45 1013.16 1012.87 1012.62 1012.44 1012.37 1012.45
1016.88 1016.62 1016.46 1016.44 1016.56 1016.77 1016.99 1017.16 1017.22 1017.16 1016.98 1016.75 1016.52 1016.33 1016.23 1016.21 1016.24 1016.30 1016.33 1016.30 1016.22 1016.08 1015.91 1015.74 1015.57 1015.43 1015.31 1015.19 1015.06 1014.93 1014.79 1014.65 1014.52 1014.40 1014.29 1014.17 1014.02 1013.85 1013.64 1013.43 1013.25 1013.15 1013.15
1017.09 1016.84 1016.70 1016.71 1016.86 1017.08 1017.32 1017.49 1017.55 1017.48 1017.28 1017.02 1016.76 1016.55 1016.42 1016.38 1016.40 1016.45 1016.49 1016.49 1016.43 1016.34 1016.21 1016.07 1015.93 1015.79 1015.64 1015.49 1015.32 1015.14 1014.97 1014.83 1014.74 1014.69 1014.68 1014.69 1014.68 1014.63 1014.51 1014.35 1014.17 1014.02 1013.94
1017.30 1017.05 1016.92 1016.95 1017.11 1017.35 1017.60 1017.79 1017.85 1017.78 1017.60 1017.34 1017.06 1016.84 1016.68 1016.61 1016.60 1016.63 1016.65 1016.66 1016.63 1016.57 1016.49 1016.40 1016.29 1016.17 1016.02 1015.84 1015.64 1015.42 1015.22 1015.08 1015.01 1015.04 1015.13 1015.26 1015.38 1015.44 1015.42 1015.31 1015.13 1014.93 1014.77
1017.52 1017.28 1017.15 1017.18 1017.34 1017.59 1017.85 1018.04 1018.12 1018.07 1017.90 1017.66 1017.40 1017.16 1016.99 1016.89 1016.84 1016.82 1016.82 1016.82 1016.80 1016.78 1016.75 1016.71 1016.66 1016.57 1016.44 1016.25 1016.02 1015.77 1015.55 1015.40 1015.36 1015.44 1015.61 1015.85 1016.07 1016.23 1016.28 1016.21 1016.04 1015.81 1015.58
1017.79 1017.54 1017.40 1017.42 1017.57 1017.81 1018.06 1018.26 1018.35 1018.32 1018.18 1017.96 1017.72 1017.49 1017.31 1017.18 1017.09 1017.03 1017.00 1016.97 1016.96 1016.96 1016.98 1017.00 1017.00 1016.95 1016.85 1016.67 1016.43 1016.16 1015.93 1015.77 1015.74 1015.85 1016.09 1016.39 1016.69 1016.92 1017.03 1017.00 1016.83 1016.58 1016.30
1018.09 1017.84 1017.69 1017.69 1017.82 1018.02 1018.24 1018.42 1018.51 1018.50 1018.38 1018.20 1017.99 1017.78 1017.60 1017.44 1017.32 1017.23 1017.16 1017.11 1017.09 1017.11 1017.16 1017.22 1017.27 1017.27 1017.20 1017.04 1016.81 1016.54 1016.30 1016.14 1016.11 1016.23 1016.49 1016.83 1017.17 1017.45 1017.60 1017.60 1017.44 1017.18 1016.89
1018.41 1018.16 1018.00 1017.98 1018.07 1018.22 1018.40 1018.54 1018.61 1018.59 1018.50 1018.35 1018.17 1017.99 1017.82 1017.66 1017.52 1017.39 1017.29 1017.21 1017.18 1017.20 1017.26 1017.35 1017.44 1017.48 1017.44 1017.30 1017.09 1016.84 1016.60 1016.44 1016.41 1016.53 1016.79 1017.14 1017.50 1017.79 1017.97 1017.98 1017.85 1017.60 1017.32
1018.72 1018.47 1018.31 1018.26 1018.31 1018.41 1018.52 1018.61 1018.64 1018.61 1018.52 1018.40 1018.25 1018.10 1017.95 1017.80 1017.66 1017.51 1017.38 1017.28 1017.23 1017.23 1017.29 1017.39 1017.49 1017.55 1017.54 1017.44 1017.25 1017.02 1016.80 1016.64 1016.61 1016.73 1016.97 1017.31 1017.66 1017.95 1018.13 1018.17 1018.06 1017.85 1017.59
1018.98 1018.76 1018.61 1018.54 1018.54 1018.58 1018.62 1018.65 1018.63 1018.58 1018.49 1018.38 1018.26 1018.14 1018.02 1017.89 1017.75 1017.60 1017.46 1017.33 1017.25 1017.23 1017.28 1017.36 1017.46 1017.53 1017.53 1017.46 1017.30 1017.10 1016.90 1016.76 1016.73 1016.84 1017.06 1017.37 1017.70 1017.98 1018.16 1018.20 1018.12 1017.95 1017.74
1019.20 1019.00 1018.86 1018.79 1018.75 1018.74 1018.73 1018.70 1018.63 1018.54 1018.44 1018.33 1018.23 1018.14 1018.05 1017.94 1017.82 1017.68 1017.53 1017.39 1017.29 1017.24 1017.26 1017.31 1017.39 1017.45 1017.47 1017.41 1017.28 1017.12 1016.95 1016.84 1016.82 1016.92 1017.12 1017.40 1017.69 1017.95 1018.11 1018.17 1018.12 1017.98 1017.81
1019.37 1019.21 1019.10 1019.02 1018.97 1018.92 1018.86 1018.78 1018.68 1018.56 1018.43 1018.32 1018.23 1018.15 1018.08 1018.00 1017.90 1017.77 1017.63 1017.49 1017.37 1017.30 1017.28 1017.31 1017.36 1017.40 1017.42 1017.37 1017.28 1017.15 1017.03 1016.94 1016.94 1017.03 1017.21 1017.45 1017.71 1017.94 1018.09 1018.14 1018.11 1018.00 1017.87
1019.53 1019.41 1019.32 1019.25 1019.20 1019.13 1019.05 1018.94 1018.80 1018.66 1018.52 1018.40 1018.30 1018.22 1018.16 1018.09 1018.00 1017.89 1017.76 1017.63 1017.52 1017.43 1017.39 1017.39 1017.42 1017.44 1017.45 1017.42 1017.35 1017.27 1017.18 1017.13 1017.14 1017.23 1017.39 1017.60 1017.82 1018.00 1018.13 1018.18 1018.16 1018.08 1017.98
1019.70 1019.61 1019.55 1019.51 1019.46 1019.40 1019.31 1019.19 1019.04 1018.88 1018.72 1018.58 1018.47 1018.38 1018.30 1018.23 1018.15 1018.06 1017.95 1017.84 1017.73 1017.65 1017.60 1017.58 1017.59 1017.61 1017.61 1017.59 1017.55 1017.50 1017.45 1017.43 1017.46 1017.54 1017.67 1017.84 1018.02 1018.17 1018.27 1018.31 1018.29 1018.23 1018.15
1019.91 1019.86 1019.82 1019.80 1019.76 1019.71 1019.63 1019.52 1019.38 1019.22 1019.05 1018.89 1018.74 1018.63 1018.53 1018.44 1018.35 1018.27 1018.18 1018.08 1018.00 1017.94 1017.90 1017.88 1017.88 1017.89 1017.90 1017.89 1017.87 1017.85 1017.83 1017.83 1017.86 1017.93 1018.04 1018.17 1018.30 1018.41 1018.49 1018.52 1018.50 1018.45 1018.39
1020.19 1020.16 1020.14 1020.12 1020.11 1020.07 1020.02 1019.92 1019.80 1019.65 1019.47 1019.29 1019.12 1018.95 1018.81 1018.69 1018.59 1018.50 1018.42 1018.36 1018.30 1018.27 1018.25 1018.24 1018.25 1018.26 1018.27 1018.27 1018.27 1018.26 1018.26 1018.26 1018.29 1018.34 1018.42 1018.50 1018.59 1018.67 1018.72 1018.74 1018.73 1018.70 1018.66
1020.53 1020.51 1020.49 1020.48 1020.47 1020.45 1020.42 1020.35 1020.26 1020.12 1019.95 1019.75 1019.55 1019.34 1019.16 1018.99 1018.86 1018.76 1018.69 1018.64 1018.61 1018.61 1018.61 1018.62 1018.64 1018.66 1018.68 1018.68 1018.68 1018.68 1018.67 1018.67 1018.68 1018.70 1018.73 1018.78 1018.82 1018.86 1018.90 1018.92 1018.93 1018.92 1018.91
1020.91 1020.89 1020.86 1020.84 1020.82 1020.81 1020.79 1020.76 1020.70 1020.59 1020.44 1020.24 1020.01 1019.77 1019.54 1019.33 1019.16 1019.04 1018.96 1018.93 1018.92 1018.94 1018.97 1019.00 1019.02 1019.05 1019.06 1019.06 1019.05 1019.03 1019.01 1018.99 1018.97 1018.95 1018.94 1018.93 1018.94 1018.95 1018.98 1019.01 1019.04 1019.07 1019.10
1021.29 1021.27 1021.22 1021.17 1021.14 1021.12 1021.12 1021.11 1021.09 1021.02 1020.89 1020.70 1020.47 1020.21 1019.94 1019.70 1019.50 1019.35 1019.27 1019.23 1019.24 1019.27 1019.31 1019.34 1019.37 1019.39 1019.39 1019.37 1019.35 1019.31 1019.26 1019.20 1019.14 1019.07 1019.01 1018.96 1018.93 1018.92 1018.94 1018.98 1019.04 1019.12 1019.19
1021.66 1021.62 1021.55 1021.46 1021.40 1021.37 1021.37 1021.38 1021.39 1021.37 1021.28 1021.13 1020.91 1020.65 1020.37 1020.11 1019.88 1019.72 1019.62 1019.57 1019.58 1019.61 1019.65 1019.68 1019.70 1019.70 1019.67 1019.63 1019.58 1019.51 1019.42 1019.33 1019.22 1019.11 1019.00 1018.90 1018.83 1018.80 1018.80 1018.86 1018.95 1019.07 1019.20
1021.98 1021.93 1021.82 1021.70 1021.59 1021.53 1021.53 1021.56 1021.61 1021.63 1021.59 1021.49 1021.31 1021.08 1020.81 1020.55 1020.32 1020.14 1020.03 1019.97 1019.96 1019.98 1020.01 1020.02 1020.02 1019.99 1019.94 1019.87 1019.78 1019.68 1019.56 1019.43 1019.28 1019.12 1018.96 1018.82 1018.71 1018.65 1018.64 1018.69 1018.80 1018.96 1019.13
1022.24 1022.18 1022.04 1021.87 1021.72 1021.63 1021.62 1021.66 1021.73 1021.80 1021.82 1021.78 1021.66 1021.47 1021.24 1021.00 1020.78 1020.61 1020.49 1020.43 1020.40 1020.40 1020.40 1020.39 1020.36 1020.30 1020.22 1020.12 1020.00 1019.88 1019.73 1019.57 1019.38 1019.19 1018.99 1018.80 1018.65 1018.55 1018.51 1018.55 1018.66 1018.82 1019.02
1022.45 1022.38 1022.21 1022.00 1021.82 1021.70 1021.66 1021.70 1021.79 1021.90 1021.98 1022.00 1021.94 1021.82 1021.64 1021.44 1021.25 1021.09 1020.98 1020.91 1020.87 1020.85 1020.83 1020.79 1020.73 1020.65 1020.54 1020.42 1020.29 1020.14 1019.98 1019.80 1019.60 1019.38 1019.15 1018.92 1018.71 1018.56 1018.48 1018.47 1018.55 1018.70 1018.89
1022.61 1022.54 1022.36 1022.13 1021.91 1021.75 1021.69 1021.72 1021.81 1021.95 1022.07 1022.14 1022.15 1022.09 1021.97 1021.83 1021.68 1021.55 1021.45 1021.38 1021.33 1021.30 1021.26 1021.20 1021.11 1021.01 1020.89 1020.76 1020.63 1020.49 1020.33 1020.15 1019.94 1019.71 1019.45 1019.18 1018.93 1018.71 1018.56 1018.50 1018.52 1018.62 1018.77
1022.78 1022.72 1022.53 1022.28 1022.04 1021.85 1021.75 1021.76 1021.85 1021.98 1022.12 1022.23 1022.29 1022.28 1022.22 1022.13 1022.02 1021.93 1021.85 1021.79 1021.75 1021.71 1021.65 1021.58 1021.48 1021.37 1021.25 1021.13 1021.01 1020.88 1020.74 1020.58 1020.38 1020.14 1019.87 1019.56 1019.26 1018.98 1018.75 1018.60 1018.54 1018.57 1018.66
1022.97 1022.93 1022.75 1022.50 1022.24 1022.03 1021.90 1021.87 1021.93 1022.05 1022.18 1022.30 1022.38 1022.41 1022.39 1022.34 1022.28 1022.21 1022.16 1022.12 1022.08 1022.04 1021.98 1021.91 1021.81 1021.70 1021.59 1021.48 1021.38 1021.28 1021.17 1021.03 1020.86 1020.62 1020.34 1020.01 1019.65 1019.31 1019.00 1018.75 1018.60 1018.53 1018.55
Thickness
5771 5771 5767 5767 5767 5766 5765 5765 5764 5763 5762 5761 5760 5760 5759 5758 5757 5757 5756 5755 5755 5754 5754 5754 5754 5755 5755 5755 5756 5757 5758 5759 5759 5760 5761 5762 5763 5764 5765 5766 5767 5769 5768
5772 5770 5766 5765 5765 5764 5764 5763 5762 5761 5760 5760 5759 5758 5757 5757 5756 5755 5754 5754 5753 5753 5752 5752 5752 5752 5752 5753 5753 5755 5755 5756 5757 5757 5759 5760 5761 5761 5763 5764 5765 5766 5766
5770 5768 5766 5764 5763 5763 5762 5761 5760 5760 5759 5758 5757 5756 5755 5755 5754 5753 5753 5752 5751 5751 5751 5750 5750 5750 5750 5751 5751 5752 5753 5753 5754 5756 5758 5760 5760 5759 5760 5761 5762 5763 5764
5768 5767 5765 5762 5761 5761 5760 5759 5759 5758 5757 5756 5756 5755 5754 5753 5752 5751 5751 5750 5750 5749 5749 5748 5748 5748 5748 5748 5749 5750 5750 5751 5752 5754 5758 5758 5758 5756 5757 5758 5759 5760 5761
5766 5764 5762 5760 5759 5759 5758 5757 5757 5756 5755 5755 5754 5753 5752 5751 5750 5750 5749 5748 5748 5747 5747 5746 5746 5746 5746 5746 5746 5747 5747 5748 5750 5753 5754 5754 5754 5752 5753 5755 5756 5757 5759
5764 5762 5759 5758 5757 5757 5756 5756 5755 5754 5754 5753 5752 5751 5750 5749 5749 5748 5747 5746 5746 5745 5745 5744 5744 5744 5744 5743 5743 5744 5745 5746 5749 5751 5751 5751 5751 5749 5750 5751 5752 5754 5755
5763 5761 5759 5755 5755 5755 5754 5754 5753 5753 5752 5751 5750 5749 5748 5748 5747 5746 5746 5745 5744 5743 5743 5742 5742 5741 5741 5741 5741 5741 5742 5744 5748 5748 5748 5747 5746 5745 5746 5747 5749 5750 5752
5760 5759 5757 5753 5753 5752 5752 5751 5751 5751 5750 5749 5748 5748 5747 5746 5745 5745 5744 5743 5742 5742 5741 5740 5740 5739 5738 5738 5738 5738 5739 5742 5745 5746 5745 5743 5741 5742 5743 5744 5745 5746 5748
5757 5757 5756 5755 5753 5751 5750 5749 5749 5748 5748 5747 5746 5746 5745 5744 5743 5743 5742 5741 5741 5740 5739 5739 5738 5737 5736 5735 5735 5735 5736 5738 5742 5742 5743 5740 5738 5739 5739 5740 5741 5743 5744
5755 5755 5754 5753 5753 5752 5750 5747 5747 5746 5746 5745 5745 5744 5743 5743 5742 5741 5741 5739 5738 5738 5737 5737 5735 5734 5733 5733 5732 5733 5734 5737 5739 5740 5739 5736 5735 5736 5736 5737 5738 5739 5740
5752 5753 5752 5752 5751 5750 5750 5747 5746 5745 5744 5745 5744 5743 5744 5745 5744 5742 5738 5737 5736 5735 5735 5734 5733 5732 5731 5730 5730 5731 5733 5736 5736 5735 5733 5731 5732 5733 5733 5734 5735 5736 5737
5749 5751 5752 5751 5750 5749 5748 5747 5746 5746 5745 5745 5745 5744 5745 5743 5742 5740 5736 5735 5734 5733 5732 5731 5731 5730 5731 5732 5730 5731 5733 5733 5733 5732 5729 5728 5729 5729 5730 5731 5731 5732 5733
5748 5748 5749 5750 5749 5748 5747 5746 5745 5744 5743 5744 5744 5743 5742 5742 5741 5739 5738 5736 5734 5734 5733 5730 5731 5732 5731 5730 5730 5730 5729 5730 5730 5728 5725 5724 5725 5726 5726 5727 5728 5729 5730
5746 5746 5747 5748 5748 5747 5746 5745 5743 5743 5743 5743 5742 5742 5741 5740 5740 5739 5737 5735 5734 5732 5730 5731 5730 5730 5730 5729 5729 5728 5727 5727 5726 5724 5721 5720 5721 5722 5723 5723 5724 5725 5726
5744 5744 5746 5746 5747 5746 5744 5742 5743 5742 5742 5741 5739 5740 5740 5739 5739 5737 5736 5733 5732 5731 5729 5728 5729 5727 5727 5726 5725 5725 5724 5723 5723 5721 5719 5716 5717 5717 5718 5719 5719 5720 5722
5744 5744 5744 5743 5743 5743 5743 5742 5741 5740 5738 5739 5738 5738 5738 5737 5737 5735 5734 5731 5730 5729 5728 5727 5726 5724 5724 5723 5722 5721 5720 5720 5719 5718 5717 5715 5713 5713 5713 5714 5715 5716 5718
5744 5744 5742 5741 5741 5740 5740 5739 5738 5737 5738 5737 5735 5736 5735 5735 5735 5734 5733 5731 5729 5727 5727 5726 5725 5723 5722 5721 5720 5718 5717 5716 5716 5715 5714 5713 5712 5710 5709 5709 5710 5712 5713
5743 5742 5740 5739 5738 5737 5736 5735 5735 5735 5734 5733 5733 5732 5733 5733 5732 5731 5729 5728 5726 5725 5724 5723 5723 5721 5720 5719 5717 5716 5715 5713 5713 5712 5711 5711 5709 5708 5706 5705 5706 5707 5709
5741 5740 5738 5737 5736 5734 5733 5732 5731 5731 5730 5730 5729 5729 5730 5730 5729 5728 5726 5725 5724 5723 5722 5721 5720 5719 5717 5715 5714 5713 5712 5711 5710 5710 5710 5708 5707 5706 5705 5703 5702 5703 5704
5740 5739 5737 5735 5734 5732 5731 5731 5728 5728 5727 5727 5726 5726 5726 5726 5726 5725 5724 5723 5722 5721 5719 5718 5716 5715 5714 5713 5713 5711 5710 5708 5707 5706 5706 5705 5704 5704 5702 5702 5702 5701 5700
5737 5737 5735 5734 5732 5730 5729 5727 5726 5724 5724 5724 5723 5723 5722 5723 5723 5722 5722 5721 5719 5718 5717 5717 5715 5713 5712 5712 5710 5708 5708 5707 5706 5703 5703 5703 5701 5700 5700 5699 5699 5699 5700
5736 5735 5735 5733 5732 5729 5727 5727 5725 5723 5723 5722 5720 5720 5720 5720 5719 5719 5719 5718 5716 5714 5714 5713 5711 5711 5709 5709 5709 5706 5703 5702 5701 5701 5700 5699 5699 5698 5697 5697 5697 5696 5696
5734 5734 5733 5733 5731 5728 5726 5724 5722 5720 5720 5720 5719 5718 5717 5717 5717 5716 5716 5716 5714 5714 5712 5710 5709 5707 5706 5706 5707 5705 5701 5698 5698 5699 5698 5697 5695 5695 5695 5693 5693 5692 5692
5735 5735 5734 5732 5730 5728 5725 5722 5721 5718 5718 5718 5719 5717 5716 5715 5714 5713 5713 5713 5712 5711 5709 5709 5707 5706 5704 5703 5703 5702 5703 5700 5695 5694 5695 5695 5693 5692 5692 5690 5689 5688 5687
5736 5733 5733 5731 5729 5726 5724 5721 5720 5719 5719 5718 5716 5715 5715 5714 5712 5711 5711 5710 5710 5708 5707 5705 5704 5703 5703 5701 5700 5699 5697 5695 5697 5693 5689 5689 5690 5690 5688 5687 5686 5684 5682
5734 5731 5730 5728 5726 5724 5722 5721 5719 5718 5716 5714 5713 5713 5713 5712 5711 5710 5708 5708 5707 5706 5704 5703 5701 5700 5700 5698 5698 5697 5695 5693 5692 5691 5688 5687 5686 5686 5685 5683 5682 5680 5678